1332979225249,19.1936
1332979285249,19.1707
1332979345249,19.2014
1332979405249,19.1542
1332979465249,19.1846
1332979525249,19.0999
1332979585249,19.2186
1332979645249,19.1588
1332979705249,19.1121
1332979765249,19.1531
1332979825249,19.1221
1332979885249,19.0511
1332979945249,19.1408
1332980005249,19.1048
1332980065249,19.1248
1332980125249,19.1031
1332980185249,19.1266
1332980245249,19.1258
1332980305249,19.0779
1332980365249,19.0954
1332980425249,19.1586
1332980485249,19.1750
1332980545249,19.1076
1332980605249,19.1443
1332980665249,19.1599
1332980725249,19.1502
1332980785249,19.1289
1332980845249,19.1946
1332980905249,19.1336
1332980965249,19.0930
1332981025249,19.1369
1332981085249,19.0711
1332981145249,19.0189
1332981205249,19.1031
1332981265249,19.0986
1332981325249,19.1471
1332981385249,19.1415
1332981445249,19.0978
1332981505249,19.0569
1332981565249,19.1132
1332981625249,19.0614
1332981685249,19.0979
1332981745249,19.0932
1332981805249,19.1282
1332981865249,19.1023
1332981925249,19.1377
1332981985249,19.1400
1332982045249,19.1178
1332982105249,19.1256
1332982165249,19.1267
1332982225249,19.1383
1332982285249,19.1762
1332982345249,19.1713
1332982405249,19.1002
1332982465249,19.1507
1332982525249,19.1783
1332982585249,19.2177
1332982645249,19.2207
1332982705249,19.2423
1332982765249,19.2252
1332982825262,19.2168
1332982885262,19.2169
1332982945262,19.2243
1332983005262,19.2303
1332983065262,19.1422
1332983125262,19.1629
1332983185262,19.1276
1332983245262,19.1245
1332983305262,19.1553
1332983365262,19.1433
1332983425262,19.0625
1332983485262,19.1196
1332983545262,19.1219
1332983605262,19.1130
1332983665262,19.0791
1332983725262,19.0819
1332983785262,19.1167
1332983845262,19.0459
1332983905262,19.0976
1332983965262,19.0824
1332984025262,19.0467
1332984085262,19.1072
1332984145262,19.0560
1332984205262,19.0547
1332984265262,19.0672
1332984325262,19.0800
1332984385262,19.0796
1332984445262,19.0502
1332984505262,18.9726
1332984565262,19.0731
1332984625262,19.0279
1332984685262,19.0730
1332984745262,19.1100
1332984805262,19.0997
1332984865262,18.9616
1332984925262,19.0793
1332984985262,19.0768
1332985045262,19.0622
1332985105262,19.0690
1332985165262,19.1397
1332985225262,19.1596
1332985285262,19.0736
1332985345262,19.0534
1332985405262,18.9511
1332985465262,19.0733
1332985525262,19.0314
1332985585262,19.0620
1332985645262,19.1139
1332985705262,19.0259
1332985765262,19.0690
1332985825262,19.0903
1332985885262,19.0387
1332985945262,19.0499
1332986005262,19.0751
1332986065262,19.0407
1332986125262,19.1188
1332986185262,19.0676
1332986245262,19.1457
1332986305262,19.0960
1332986365262,19.1222
1332986425275,19.1046
1332986485275,19.0637
1332986545275,19.0342
1332986605275,19.0742
1332986665275,19.0880
1332986725275,19.1330
1332986785275,19.0996
1332986845275,19.0932
1332986905275,19.0979
1332986965275,19.1089
1332987025275,19.0540
1332987085275,19.0720
1332987145275,19.0411
1332987205275,19.1353
1332987265275,19.1128
1332987325275,19.0923
1332987385275,19.0878
1332987445275,19.0810
1332987505275,19.1054
1332987565275,19.1000
1332987625275,19.1823
1332987685275,19.1173
1332987745275,19.1759
1332987805275,19.1863
1332987865275,19.1382
1332987925275,19.1527
1332987985275,19.1155
1332988045275,19.1185
1332988105275,19.1847
1332988165275,19.1123
1332988225275,19.1335
1332988285275,19.1096
1332988345275,19.1026
1332988405275,19.1413
1332988465275,19.1839
1332988525275,19.1855
1332988585275,19.1355
1332988645275,19.1584
1332988705275,19.1319
1332988765275,19.1031
1332988825275,19.1323
1332988885275,19.0750
1332988945275,19.1852
1332989005275,19.1423
1332989065275,19.1331
1332989125275,19.1995
1332989185275,19.2134
1332989245275,19.2005
1332989305275,19.1384
1332989365275,19.1529
1332989425275,19.1072
1332989485275,19.1852
1332989545275,19.1946
1332989605275,19.1952
1332989665275,19.1870
1332989725275,19.1660
1332989785275,19.1811
1332989845275,19.2246
1332989905275,19.1695
1332989965275,19.1608
1332990025288,19.1731
1332990085288,19.1490
1332990145288,19.2279
1332990205288,19.2194
1332990265288,19.2276
1332990325288,19.1796
1332990385288,19.1294
1332990445288,19.2333
1332990505288,19.2458
1332990565288,19.2082
1332990625288,19.2275
1332990685288,19.2694
1332990745288,19.2207
1332990805288,19.1803
1332990865288,19.1936
1332990925288,19.1923
1332990985288,19.2087
1332991045288,19.1965
1332991105288,19.2076
1332991165288,19.1915
1332991225288,19.1910
1332991285288,19.2830
1332991345288,19.2394
1332991405288,19.2489
1332991465288,19.2209
1332991525288,19.2131
1332991585288,19.1921
1332991645288,19.2312
1332991705288,19.2066
1332991765288,19.2132
1332991825288,19.2045
1332991885288,19.1650
1332991945288,19.1766
1332992005288,19.2190
1332992065288,19.1642
1332992125288,19.1487
1332992185288,19.2037
1332992245288,19.2560
1332992305288,19.2757
1332992365288,19.3252
1332992425288,19.2554
1332992485288,19.2743
1332992545288,19.1721
1332992605288,19.2402
1332992665288,19.2339
1332992725288,19.1537
1332992785288,19.1344
1332992845288,19.1782
1332992905288,19.1800
1332992965288,19.1297
1332993025288,19.1391
1332993085288,19.1040
1332993145288,19.1121
1332993205288,19.1057
1332993265288,19.1180
1332993325288,19.1276
1332993385288,19.1701
1332993445288,19.1730
1332993505288,19.1229
1332993565288,19.1618
1332993625301,19.1773
1332993685301,19.1465
1332993745301,19.1726
1332993805301,19.1944
1332993865301,19.1696
1332993925301,19.1384
1332993985301,19.1748
1332994045301,19.1578
1332994105301,19.1899
1332994165301,19.2215
1332994225301,19.1860
1332994285301,19.2145
1332994345301,19.1758
1332994405301,19.1667
1332994465301,19.2076
1332994525301,19.1804
1332994585301,19.1681
1332994645301,19.2232
1332994705301,19.2265
1332994765301,19.2027
1332994825301,19.1752
1332994885301,19.1450
1332994945301,19.1361
1332995005301,19.1839
1332995065301,19.2235
1332995125301,19.1870
1332995185301,19.2239
1332995245301,19.1957
1332995305301,19.2171
1332995365301,19.2259
1332995425301,19.2063
1332995485301,19.2739
1332995545301,19.2505
1332995605301,19.1910
1332995665301,19.1918
1332995725301,19.1971
1332995785301,19.2006
1332995845301,19.1853
1332995905301,19.2297
1332995965301,19.2203
1332996025301,19.1730
1332996085301,19.1784
1332996145301,19.1372
1332996205301,19.0834
1332996265301,19.0668
1332996325301,19.0966
1332996385301,19.1392
1332996445301,19.1266
1332996505301,19.1055
1332996565301,19.1624
1332996625301,19.0870
1332996685301,19.0969
1332996745301,19.0558
1332996805301,19.0368
1332996865301,19.0181
1332996925301,19.0382
1332996985301,19.0495
1332997045301,19.0584
1332997105301,19.0308
1332997165301,19.1239
1332997225313,19.1323
1332997285313,19.0850
1332997345313,19.0511
1332997405313,19.0545
1332997465313,19.1376
1332997525313,19.0983
1332997585313,19.0559
1332997645313,19.0902
1332997705313,19.0937
1332997765313,19.0760
1332997825313,19.1143
1332997885313,19.1074
1332997945313,19.0833
1332998005313,19.0590
1332998065313,19.1293
1332998125313,19.1251
1332998185313,19.0977
1332998245313,19.0832
1332998305313,19.0550
1332998365313,19.1191
1332998425313,19.1085
1332998485313,19.1202
1332998545313,19.0816
1332998605313,19.1411
1332998665313,19.1651
1332998725313,19.1641
1332998785313,19.1540
1332998845313,19.1363
1332998905313,19.1842
1332998965313,19.1796
1332999025313,19.1372
1332999085313,19.2053
1332999145313,19.1708
1332999205313,19.2116
1332999265313,19.1438
1332999325313,19.1522
1332999385313,19.2016
1332999445313,19.1987
1332999505313,19.1929
1332999565313,19.2382
1332999625313,19.2133
1332999685313,19.2949
1332999745313,19.3191
1332999805313,19.2765
1332999865313,19.1686
1332999925313,19.2287
1332999985313,19.1680
1333000045313,19.1459
1333000105313,19.1724
1333000165313,19.1815
1333000225313,19.1828
1333000285313,19.1306
1333000345313,19.1115
1333000405313,19.1125
1333000465313,19.1527
1333000525313,19.0891
1333000585313,19.0924
1333000645313,19.1155
1333000705313,19.0993
1333000765313,19.0676
1333000825326,19.1329
1333000885326,19.1048
1333000945326,19.0647
1333001005326,19.0820
1333001065326,19.0495
1333001125326,19.0704
1333001185326,19.0678
1333001245326,19.1011
1333001305326,18.9951
1333001365326,19.0381
1333001425326,18.9743
1333001485326,19.0381
1333001545326,19.1156
1333001605326,19.0443
1333001665326,19.0505
1333001725326,19.0309
1333001785326,18.9368
1333001845326,19.0449
1333001905326,19.0192
1333001965326,18.9727
1333002025326,19.0543
1333002085326,19.0301
1333002145326,19.0233
1333002205326,19.0969
1333002265326,18.9985
1333002325326,19.0441
1333002385326,18.9603
1333002445326,18.9503
1333002505326,18.9163
1333002565326,18.7802
1333002625326,18.6665
1333004005326,18.8413
1333004065326,18.9769
1333004125326,19.0348
1333004185326,19.0837
1333004245326,19.1260
1333004305326,19.0891
1333004365326,19.0582
1333004425339,19.1179
1333004485339,19.0784
1333004545339,19.1223
1333004605339,19.0847
1333004665339,19.0846
1333004725339,19.0804
1333004785339,18.9848
1333004845339,19.0885
1333004905339,19.0387
1333004965339,18.9942
1333005025339,19.0387
1333005085339,19.0710
1333005145339,19.0439
1333005205339,19.0679
1333005265339,19.0270
1333005325339,19.0016
1333005385339,19.0912
1333005445339,19.0772
1333005505339,19.0701
1333005565339,19.0157
1333005625339,19.0999
1333005685339,19.0400
1333005745339,19.0594
1333005805339,19.0357
1333005865339,18.9903
1333005925339,19.0122
1333005985339,19.0314
1333006045339,19.0756
1333006105339,19.0881
1333006165339,19.0469
1333006225339,19.1030
1333006285339,19.0947
1333006345339,19.0439
1333006405339,19.0146
1333006465339,19.0191
1333006525339,19.0411
1333006585339,19.0362
1333006645339,18.9993
1333006705339,18.9857
1333006765339,19.0234
1333006825339,19.0532
1333006885339,19.0887
1333006945339,19.0227
1333007005339,19.0347
1333007065339,19.0638
1333007125339,19.0109
1333007185339,19.0466
1333007245339,18.9585
1333007305339,18.9983
1333007365339,18.9578
1333007425339,18.9806
1333007485339,18.9908
1333007545339,19.0040
1333007605339,18.9723
1333007665339,18.9557
1333007725339,19.0232
1333007785339,18.9708
1333007845339,19.0172
1333007905339,19.0481
1333007965339,19.0285
1333008025352,19.0772
1333008085352,19.0232
1333008145352,18.9720
1333008205352,19.0358
1333008265352,19.0686
1333008325352,19.0973
1333008385352,19.0363
1333008445352,19.0359
1333008505352,19.0598
1333008565352,19.0356
1333008625352,18.9942
1333008685352,18.9904
1333008745352,18.9879
1333008805352,18.9803
1333008865352,18.9923
1333008925352,19.0145
1333008985352,18.9817
1333009045352,19.0105
1333009105352,18.9454
1333009165352,18.9428
1333009225352,18.9007
1333009285352,18.9788
1333009345352,18.9497
1333009405352,18.9210
1333009465352,18.9608
1333009525352,18.9243
1333009585352,18.9588
1333009645352,18.9793
1333009705352,19.0155
1333009765352,18.9905
1333009825352,19.0223
1333009885352,19.0522
1333009945352,19.0310
1333010005352,18.9972
1333010065352,19.0740
1333010125352,19.0005
1333010185352,19.0235
1333010245352,19.0041
1333010305352,19.0308
1333010365352,19.0646
1333010425352,19.0309
1333010485352,18.9864
1333010545352,19.0019
1333010605352,18.9948
1333010665352,18.9824
1333010725352,19.0194
1333010785352,19.0274
1333010845352,19.0293
1333010905352,19.0124
1333010965352,18.9723
1333011025352,19.0231
1333011085352,18.9669
1333011145352,18.9729
1333011205352,18.9280
1333011265352,18.9780
1333011325352,19.0056
1333011385352,18.9939
1333011445352,18.9841
1333011505352,18.9875
1333011565352,19.0077
1333011625365,18.9255
1333011685365,18.9386
1333011745365,18.9723
1333011805365,18.9534
1333011865365,18.9517
1333011925365,18.9068
1333011985365,18.9608
1333012045365,18.9628
1333012105365,18.9474
1333012165365,18.9639
1333012225365,18.9383
1333012285365,18.9196
1333012345365,19.0023
1333012405365,18.9341
1333012465365,18.9397
1333012525365,18.9802
1333012585365,18.9307
1333012645365,18.9030
1333012705365,18.9299
1333012765365,18.9777
1333012825365,18.9781
1333012885365,18.9430
1333012945365,18.9785
1333013005365,18.9640
1333013065365,18.9503
1333013125365,18.9317
1333013185365,19.0586
1333013245365,18.9880
1333013305365,18.9778
1333013365365,18.9047
1333013425365,18.9571
1333013485365,18.9161
1333013545365,18.9451
1333013605365,18.9247
1333013665365,18.9138
1333013725365,18.9251
1333013785365,18.9687
1333013845365,18.9373
1333013905365,18.9783
1333013965365,18.9122
1333014025365,18.9654
1333014085365,18.9852
1333014145365,18.9483
1333014205365,19.0661
1333014265365,18.9902
1333014325365,18.9664
1333014385365,18.9574
1333014445365,18.9629
1333014505365,18.9489
1333014565365,18.9886
1333014625365,18.9543
1333014685365,18.9889
1333014745365,19.1655
1333014805365,19.0860
1333014865365,19.0501
1333014925365,19.0642
1333014985365,19.0555
1333015045365,18.9146
1333015105365,19.0047
1333015165365,19.0228
1333015225377,19.0129
1333015285377,18.9924
1333015345377,19.0305
1333015405377,19.0183
1333015465377,18.9738
1333015525377,18.9423
1333015585377,18.9763
1333015645377,19.0003
1333015705377,19.0163
1333015765377,18.9628
1333015825377,19.0103
1333015885377,18.9533
1333015945377,18.9879
1333016005377,18.9889
1333016065377,19.0172
1333016125377,19.0549
1333016185377,18.9475
1333016245377,18.9868
1333016305377,18.9822
1333016365377,18.9918
1333016425377,19.0473
1333016485377,18.9909
1333016545377,18.9923
1333016605377,19.0254
1333016665377,19.0528
1333016725377,19.0797
1333016785377,19.1128
1333016845377,19.1258
1333016905377,19.1651
1333016965377,19.1674
1333017025377,19.1358
1333017085377,19.1408
1333017145377,19.1661
1333017205377,19.2208
1333017265377,19.1321
1333017325377,19.1812
1333017385377,19.2070
1333017445377,19.1313
1333017505377,19.1070
1333017565377,19.0746
1333017625377,19.1856
1333017685377,19.1442
1333017745377,19.1576
1333017805377,19.1177
1333017865377,19.0616
1333017925377,19.1149
1333017985377,19.0248
1333018045377,19.0615
1333018105377,19.1230
1333018165377,19.0710
1333018225377,19.1427
1333018285377,19.1020
1333018345377,19.1037
1333018405377,19.1226
1333018465377,19.0606
1333018525377,19.0851
1333018585377,19.0513
1333018645377,19.0472
1333018705377,19.0282
1333018765377,19.0363
1333018825390,19.0005
1333018885390,19.0175
1333018945390,19.0534
1333019005390,18.9934
1333019065390,19.0428
1333019125390,19.0111
1333019185390,19.0409
1333019245390,19.0589
1333019305390,19.0150
1333019365390,19.0212
1333019425390,19.0532
1333019485390,19.0101
1333019545390,19.0478
1333019605390,19.0288
1333019665390,19.0783
1333019725390,19.0508
1333019785390,18.9960
1333019845390,19.0162
1333019905390,19.0455
1333019965390,19.0612
1333020025390,19.0617
1333020085390,19.0556
1333020145390,19.0662
1333020205390,19.0783
1333020265390,19.0515
1333020325390,19.0813
1333020385390,19.0283
1333020445390,19.0518
1333020505390,19.0893
1333020565390,19.0831
1333020625390,19.0607
1333020685390,18.9970
1333020745390,19.0187
1333020805390,19.0040
1333020865390,19.0216
1333020925390,19.0467
1333020985390,18.9782
1333021045390,18.9923
1333021105390,18.9459
1333021165390,18.9814
1333021225390,19.0364
1333021285390,18.9713
1333021345390,18.9989
1333021405390,18.9756
1333021465390,18.9995
1333021525390,19.0020
1333021585390,18.9710
1333021645390,18.9465
1333021705390,18.9485
1333021765390,19.0255
1333021825390,19.2038
1333021885390,19.1603
1333021945390,19.1173
1333022005390,19.0642
1333022065390,19.0184
1333022125390,19.0129
1333022185390,19.0582
1333022245390,18.9674
1333022305390,19.0107
1333022365390,18.9690
1333022425403,18.9871
1333022485403,18.9667
1333022545403,18.9511
1333022605403,18.9607
1333022665403,18.9737
1333022725403,18.9527
1333022785403,18.9289
1333022845403,18.9426
1333022905403,18.8954
1333022965403,18.9448
1333023025403,18.9668
1333023085403,19.0024
1333023145403,18.9460
1333023205403,19.0283
1333023265403,18.9487
1333023325403,19.0046
1333023385403,18.9933
1333023445403,18.9847
1333023505403,19.0174
1333023565403,19.0029
1333023625403,18.9609
1333023685403,18.9001
1333023745403,18.9482
1333023805403,18.9436
1333023865403,18.9638
1333023925403,18.9902
1333023985403,18.9435
1333024045403,19.0074
1333024105403,19.0142
1333024165403,19.1843
1333024225403,19.0790
1333024285403,19.0083
1333024345403,19.0732
1333024405403,19.0236
1333024465403,19.0056
1333024525403,18.9931
1333024585403,19.0447
1333024645403,19.0937
1333024705403,19.0191
1333024765403,19.0753
1333024825403,19.0858
1333024885403,19.0323
1333024945403,19.1051
1333025005403,19.0374
1333025065403,19.0141
1333025125403,19.0638
1333025185403,19.0188
1333025245403,19.0532
1333025305403,19.0113
1333025365403,19.0127
1333025425403,19.0356
1333025485403,19.1737
1333025545403,19.0382
1333025605403,19.0962
1333025665403,19.1218
1333025725403,19.1251
1333025785403,19.0955
1333025845403,19.1374
1333025905403,19.0706
1333025965403,19.1020
1333026025415,19.0935
1333026085415,19.1028
1333026145415,19.0628
1333026205415,19.0090
1333026265415,19.0465
1333026325416,19.0217
1333026385416,19.0779
1333026445415,19.0481
1333026505415,19.0334
1333026565415,19.0780
1333026625415,19.1005
1333026685415,19.0671
1333026745415,19.0947
1333026805415,19.0940
1333026865415,19.0306
1333026925415,19.1489
1333026985415,19.1200
1333027045415,19.0919
1333027105415,19.0486
1333027165415,19.1401
1333027225415,19.2291
1333027285415,19.4265
1333027345415,19.3905
1333027405415,19.2742
1333027465415,19.2192
1333027525415,19.1003
1333027585415,19.0704
1333027645415,19.0286
1333027705416,19.0831
1333027765415,19.0554
1333027825415,19.0506
1333027885415,19.0460
1333027945415,19.0812
1333028005415,19.0494
1333028065415,19.0755
1333028125415,19.0945
1333028185415,19.0708
1333028245415,19.0575
1333028305415,19.1274
1333028365415,19.1218
1333028425415,19.1192
1333028485415,19.0143
1333028545415,19.0368
1333028605415,19.0461
1333028665415,19.0422
1333028725415,19.0397
1333028785415,19.0511
1333028845415,19.0230
1333028905415,19.0841
1333028965415,19.0842
1333029025416,19.0362
1333029085416,19.0667
1333029145415,19.0723
1333029205415,19.0765
1333029265415,19.1037
1333029325415,19.0993
1333029385415,19.0942
1333029445415,19.1015
1333029505415,19.0146
1333029565415,19.1202
1333029625428,19.0817
1333029685428,19.0842
1333029745428,19.0604
1333029805428,19.0179
1333029865428,19.0116
1333029925428,18.9986
1333029985428,18.9610
1333030045428,18.9493
1333030105428,18.9754
1333030165428,18.9052
1333030225428,18.9811
1333030285428,18.9959
1333030345428,18.9403
1333030405428,19.0090
1333030465428,18.9976
1333030525428,18.9912
1333030585428,19.0018
1333030645428,18.9903
1333030705428,19.0200
1333030765428,18.9628
1333030825428,19.0456
1333030885428,19.0974
1333030945428,19.0623
1333031005428,19.0099
1333031065428,19.0335
1333031125428,19.0283
1333031185428,19.0219
1333031245428,18.9953
1333031305428,19.0453
1333031365428,18.9988
1333031425428,19.0781
1333031485428,19.0531
1333031545428,19.0582
1333031605428,19.0677
1333031665428,19.0117
1333031725428,19.0109
1333031785428,19.0156
1333031845428,19.0811
1333031905428,19.0611
1333031965428,19.0257
1333032025428,19.0011
1333032085428,19.0803
1333032145428,19.0633
1333032205428,19.0530
1333032265428,19.0578
1333032325428,19.0640
1333032385428,18.9908
1333032445428,18.9626
1333032505428,19.0359
1333032565428,19.0219
1333032625428,19.0297
1333032685428,19.0140
1333032745428,19.0425
1333032805428,19.0340
1333032865428,18.9899
1333032925428,19.0321
1333032985428,19.0195
1333033045428,19.0107
1333033105428,19.0001
1333033165428,19.0328
1333033225440,18.9875
1333033285440,19.0732
1333033345440,19.0069
1333033405440,19.0460
1333033465440,19.0451
1333033525440,18.9160
1333033585440,19.0422
1333033645440,18.9852
1333033705440,19.0342
1333033765440,19.0354
1333033825440,19.0680
1333033885440,19.0321
1333033945440,19.0680
1333034005440,19.0683
1333034065440,19.0343
1333034125440,19.0094
1333034185440,19.0042
1333034245440,19.0398
1333034305440,19.0443
1333034365440,19.0349
1333034425440,18.9877
1333034485440,18.9828
1333034545440,18.9890
1333034605440,19.0502
1333034665440,19.0043
1333034725440,19.0512
1333034785440,18.9913
1333034845440,19.0213
1333034905440,19.0401
1333034965440,19.0712
1333035025440,19.0217
1333035085440,19.0651
1333035145440,19.0860
1333035205440,19.0891
1333035265440,19.0806
1333035325440,19.0460
1333035385440,19.0069
1333035445440,19.0572
1333035505440,19.0632
1333035565440,18.9842
1333035625440,19.0184
1333035685440,18.9929
1333035745440,19.0248
1333035805440,19.0364
1333035865440,19.0516
1333035925440,19.0698
1333035985440,19.0195
1333036045440,18.9991
1333036105440,18.9808
1333036165440,18.9965
1333036225440,19.0310
1333036285440,19.0803
1333036345440,19.0395
1333036405440,19.0154
1333036465440,19.0360
1333036525440,19.0415
1333036585440,19.0721
1333036645440,19.0846
1333036705440,19.1107
1333036765440,19.0804
1333036825453,19.0864
1333036885453,19.0842
1333036945453,19.1316
1333037005453,19.1142
1333037065453,19.1174
1333037125453,19.0297
1333037185453,19.0442
1333037245453,19.0499
1333037305453,19.0932
1333037365453,19.0660
1333037425453,19.0432
1333037485453,19.0679
1333037545453,19.0207
1333037605453,19.1000
1333037665453,19.1364
1333037725453,19.1167
1333037785453,19.0196
1333037845453,19.0174
1333037905453,19.0199
1333037965453,19.0736
1333038025453,19.0762
1333038085453,19.0810
1333038145453,19.0477
1333038205453,19.0197
1333038265453,19.0117
1333038325453,19.0811
1333038385453,19.0853
1333038445453,19.0746
1333038505453,19.0433
1333038565453,19.0289
1333038625453,19.1022
1333038685453,19.0612
1333038745453,19.0453
1333038805453,19.0641
1333038865453,19.0316
1333038925453,19.0727
1333038985453,19.0480
1333039045453,19.1024
1333039105453,19.0301
1333039165453,19.1428
1333039225453,19.1394
1333039285453,19.1738
1333039345453,19.0900
1333039405453,19.1070
1333039465453,19.0660
1333039525453,19.0229
1333039585453,19.0370
1333039645453,19.0673
1333039705453,19.0757
1333039765453,19.0562
1333039825453,19.0635
1333039885453,19.1280
1333039945453,19.0839
1333040005453,19.0652
1333040065453,19.0865
1333040125453,19.0632
1333040185453,19.1251
1333040245453,19.0767
1333040305453,19.0554
1333040365453,19.0576
1333040425465,19.1183
1333040485465,19.1290
1333040545465,19.0495
1333040605465,19.0859
1333040665465,19.0378
1333040725465,19.0335
1333040785465,19.0888
1333040845465,19.0227
1333040905465,19.1015
1333040965465,19.0531
1333041025465,19.0186
1333041085465,19.1210
1333041145465,19.0645
1333041205465,19.0518
1333041265465,19.0493
1333041325465,19.0712
1333041385465,19.0483
1333041445465,18.9917
1333041505465,19.0244
1333041565465,19.0694
1333041625465,19.0539
1333041685465,19.0415
1333041745465,19.0962
1333041805465,19.0198
1333041865465,19.0455
1333041925465,19.0373
1333041985465,19.0712
1333042045465,18.9937
1333042105465,19.1060
1333042165465,19.1004
1333042225465,19.0956
1333042285465,19.0786
1333042345465,19.0643
1333042405465,19.0518
1333042465465,19.0707
1333042525465,19.0578
1333042585465,19.0977
1333042645465,19.1006
1333042705465,19.0986
1333042765465,19.0664
1333042825465,19.1058
1333042885465,19.1931
1333042945465,19.1549
1333043005465,19.0759
1333043065465,19.1251
1333043125465,19.0857
1333043185465,19.1493
1333043245465,19.1115
1333043305465,19.1454
1333043365465,19.1094
1333043425465,19.1321
1333043485465,19.1457
1333043545465,19.1513
1333043605465,19.1306
1333043665465,19.1177
1333043725465,19.0767
1333043785465,19.1444
1333043845465,19.1462
1333043905465,19.1809
1333043965465,19.1727
1333044025477,19.1826
1333044085477,19.1961
1333044145477,19.1976
1333044205477,19.1598
1333044265477,19.1271
1333044325477,19.1642
1333044385477,19.1996
1333044445477,19.2133
1333044505477,19.1160
1333044565477,19.1338
1333044625477,19.1826
1333044685477,19.1570
1333044745477,19.1531
1333044805477,19.1771
1333044865477,19.1435
1333044925477,19.1659
1333044985477,19.1878
1333045045477,19.1825
1333045105477,19.2505
1333045165477,19.1754
1333045225477,19.1420
1333045285477,19.1727
1333045345477,19.1608
1333045405477,19.1379
1333045465477,19.2343
1333045525477,19.1814
1333045585477,19.2885
1333045645477,19.2124
1333045705477,19.1518
1333045765477,19.1928
1333045825477,19.1192
1333045885477,19.1355